Time,TemperatureF,DewpointF,PressureIn,WindDirection,WindDirectionDegrees,WindSpeedMPH,WindSpeedGustMPH,Humidity,HourlyPrecipIn,Conditions,Clouds,dailyrainin,SolarRadiationWatts/m^2,SoftwareType,DateUTC
2013-03-18 00:02:00,34.0,28.0,-100.00,ESE,114,0.0,0.0,80,0.00,,,0.00,0.000000,,2013-03-18 07:02:00,
2013-03-18 00:33:00,34.0,28.0,-100.00,ESE,114,0.0,0.0,80,0.00,,,0.00,0.000000,,2013-03-18 07:33:00,
2013-03-18 00:42:00,34.0,28.0,-100.00,ESE,114,0.0,0.0,80,0.00,,,0.00,0.000000,,2013-03-18 07:42:00,
2013-03-18 00:52:00,34.0,28.0,-100.00,ESE,114,0.0,0.0,80,0.00,,,0.00,0.000000,,2013-03-18 07:52:00,
2013-03-18 01:32:00,33.0,27.0,-100.00,East,81,0.0,0.0,79,0.00,,,0.00,0.000000,,2013-03-18 08:32:00,
2013-03-18 01:43:00,33.0,27.0,-100.00,East,81,0.0,0.0,79,0.00,,,0.00,0.000000,,2013-03-18 08:43:00,
2013-03-18 01:52:00,33.0,27.0,-100.00,East,81,0.0,0.0,79,0.00,,,0.00,0.000000,,2013-03-18 08:52:00,
2013-03-18 02:01:00,33.0,27.0,-100.00,East,81,0.0,0.0,79,0.00,,,0.00,0.000000,,2013-03-18 09:01:00,
2013-03-18 02:02:00,32.0,25.0,-100.00,East,91,0.0,0.0,75,0.00,,,0.00,0.000000,,2013-03-18 09:02:00,
2013-03-18 02:33:00,32.0,25.0,-100.00,East,91,0.0,0.0,75,0.00,,,0.00,0.000000,,2013-03-18 09:33:00,
2013-03-18 02:43:00,32.0,25.0,-100.00,East,91,0.0,0.0,75,0.00,,,0.00,0.000000,,2013-03-18 09:43:00,
2013-03-18 02:53:00,32.0,25.0,-100.00,East,91,0.0,0.0,75,0.00,,,0.00,0.000000,,2013-03-18 09:53:00,
2013-03-18 03:02:00,31.0,20.0,-100.00,East,87,0.0,4.0,63,0.00,,,0.00,0.000000,,2013-03-18 10:02:00,
2013-03-18 03:33:00,31.0,20.0,-100.00,East,87,0.0,4.0,63,0.00,,,0.00,0.000000,,2013-03-18 10:33:00,
2013-03-18 03:42:00,31.0,20.0,-100.00,East,87,0.0,4.0,63,0.00,,,0.00,0.000000,,2013-03-18 10:42:00,
2013-03-18 03:53:00,31.0,20.0,-100.00,East,87,0.0,4.0,63,0.00,,,0.00,0.000000,,2013-03-18 10:53:00,
2013-03-18 04:22:00,31.0,18.0,-100.00,ENE,78,0.0,0.0,57,0.00,,,0.00,0.000000,,2013-03-18 11:22:00,
2013-03-18 04:32:00,31.0,18.0,-100.00,ENE,78,0.0,0.0,57,0.00,,,0.00,0.000000,,2013-03-18 11:32:00,
2013-03-18 04:42:00,31.0,18.0,-100.00,ENE,78,0.0,0.0,57,0.00,,,0.00,0.000000,,2013-03-18 11:42:00,
2013-03-18 04:52:00,31.0,18.0,-100.00,ENE,78,0.0,0.0,57,0.00,,,0.00,0.000000,,2013-03-18 11:52:00,
2013-03-18 05:22:00,31.0,15.0,-100.00,East,93,0.0,5.0,51,0.00,,,0.00,0.000000,,2013-03-18 12:22:00,
2013-03-18 05:33:00,31.0,15.0,-100.00,East,93,0.0,5.0,51,0.00,,,0.00,0.000000,,2013-03-18 12:33:00,
2013-03-18 05:43:00,31.0,15.0,-100.00,East,93,0.0,5.0,51,0.00,,,0.00,0.000000,,2013-03-18 12:43:00,
2013-03-18 05:52:00,31.0,15.0,-100.00,East,93,0.0,5.0,51,0.00,,,0.00,0.000000,,2013-03-18 12:52:00,
2013-03-18 06:02:00,31.0,14.0,-100.00,ENE,77,0.0,3.0,49,0.00,,,0.00,0.000000,,2013-03-18 13:02:00,
2013-03-18 06:33:00,31.0,14.0,-100.00,ENE,77,0.0,3.0,49,0.00,,,0.00,0.000000,,2013-03-18 13:33:00,
2013-03-18 06:42:00,31.0,14.0,-100.00,ENE,77,0.0,3.0,49,0.00,,,0.00,0.000000,,2013-03-18 13:42:00,
2013-03-18 06:52:00,31.0,14.0,-100.00,ENE,77,0.0,3.0,49,0.00,,,0.00,0.000000,,2013-03-18 13:52:00,
2013-03-18 07:02:00,31.0,13.0,-100.00,East,87,0.0,4.0,47,-99.99,,,0.00,0.000000,,2013-03-18 14:02:00,
2013-03-18 07:32:00,31.0,13.0,-100.00,East,87,0.0,4.0,47,-99.99,,,0.00,0.000000,,2013-03-18 14:32:00,
2013-03-18 07:42:00,31.0,13.0,-100.00,East,87,0.0,4.0,47,-99.99,,,0.00,0.000000,,2013-03-18 14:42:00,
2013-03-18 07:52:00,31.0,13.0,-100.00,East,87,0.0,4.0,47,-99.99,,,0.00,0.000000,,2013-03-18 14:52:00,
2013-03-18 08:02:00,32.0,14.0,-100.00,East,92,1.0,4.0,47,0.00,,,0.00,17.000000,,2013-03-18 15:02:00,
2013-03-18 08:23:00,32.0,14.0,-100.00,East,92,1.0,4.0,47,0.00,,,0.00,17.000000,,2013-03-18 15:23:00,
2013-03-18 08:33:00,32.0,14.0,-100.00,East,92,1.0,4.0,47,0.00,,,0.00,17.000000,,2013-03-18 15:33:00,
2013-03-18 08:43:00,32.0,14.0,-100.00,East,92,1.0,4.0,47,0.00,,,0.00,17.000000,,2013-03-18 15:43:00,
2013-03-18 08:52:00,32.0,14.0,-100.00,East,92,1.0,4.0,47,0.00,,,0.00,17.000000,,2013-03-18 15:52:00,
2013-03-18 09:02:00,45.0,22.0,-100.00,SSE,151,0.0,6.0,39,0.00,,,0.00,248.000000,,2013-03-18 16:02:00,
2013-03-18 09:33:00,45.0,22.0,-100.00,SSE,151,0.0,6.0,39,0.00,,,0.00,248.000000,,2013-03-18 16:33:00,
2013-03-18 09:42:00,45.0,22.0,-100.00,SSE,151,0.0,6.0,39,0.00,,,0.00,248.000000,,2013-03-18 16:42:00,
2013-03-18 09:52:00,45.0,22.0,-100.00,SSE,151,0.0,6.0,39,0.00,,,0.00,248.000000,,2013-03-18 16:52:00,
2013-03-18 10:33:00,47.0,21.0,-100.00,WSW,248,0.0,4.0,35,0.00,,,0.00,213.000000,,2013-03-18 17:33:00,
2013-03-18 10:43:00,47.0,21.0,-100.00,WSW,248,0.0,4.0,35,0.00,,,0.00,213.000000,,2013-03-18 17:43:00,
2013-03-18 10:52:00,47.0,21.0,-100.00,WSW,248,0.0,4.0,35,0.00,,,0.00,213.000000,,2013-03-18 17:52:00,
2013-03-18 11:01:00,47.0,21.0,-100.00,WSW,248,0.0,4.0,35,0.00,,,0.00,213.000000,,2013-03-18 18:01:00,
2013-03-18 11:02:00,52.0,10.0,-100.00,SSW,206,2.0,6.0,18,-99.99,,,0.00,106.000000,,2013-03-18 18:02:00,
2013-03-18 11:32:00,52.0,10.0,-100.00,SSW,206,2.0,6.0,18,-99.99,,,0.00,106.000000,,2013-03-18 18:32:00,
2013-03-18 11:42:00,52.0,10.0,-100.00,SSW,206,2.0,6.0,18,-99.99,,,0.00,106.000000,,2013-03-18 18:42:00,
2013-03-18 11:52:00,52.0,10.0,-100.00,SSW,206,2.0,6.0,18,-99.99,,,0.00,106.000000,,2013-03-18 18:52:00,
2013-03-18 12:02:00,60.0,16.0,-100.00,NNE,14,3.0,7.0,18,0.00,,,-99.99,673.000000,,2013-03-18 19:02:00,
2013-03-18 12:22:00,60.0,16.0,-100.00,NNE,14,3.0,7.0,18,0.00,,,-99.99,673.000000,,2013-03-18 19:22:00,
2013-03-18 12:33:00,60.0,16.0,-100.00,NNE,14,3.0,7.0,18,0.00,,,-99.99,673.000000,,2013-03-18 19:33:00,
2013-03-18 12:42:00,60.0,16.0,-100.00,NNE,14,3.0,7.0,18,0.00,,,-99.99,673.000000,,2013-03-18 19:42:00,
2013-03-18 12:52:00,60.0,16.0,-100.00,NNE,14,3.0,7.0,18,0.00,,,-99.99,673.000000,,2013-03-18 19:52:00,
2013-03-18 13:02:00,61.0,14.0,-100.00,NNE,30,2.0,9.0,16,0.00,,,0.00,883.000000,,2013-03-18 20:02:00,
2013-03-18 13:33:00,61.0,14.0,-100.00,NNE,30,2.0,9.0,16,0.00,,,0.00,883.000000,,2013-03-18 20:33:00,
2013-03-18 13:42:00,61.0,14.0,-100.00,NNE,30,2.0,9.0,16,0.00,,,0.00,883.000000,,2013-03-18 20:42:00,
2013-03-18 13:52:00,61.0,14.0,-100.00,NNE,30,2.0,9.0,16,0.00,,,0.00,883.000000,,2013-03-18 20:52:00,
2013-03-18 14:02:00,61.0,14.0,-100.00,NW,323,4.0,10.0,16,0.00,,,0.00,878.000000,,2013-03-18 21:02:00,
2013-03-18 14:22:00,61.0,14.0,-100.00,NW,323,4.0,10.0,16,0.00,,,0.00,878.000000,,2013-03-18 21:22:00,
2013-03-18 14:33:00,61.0,14.0,-100.00,NW,323,4.0,10.0,16,0.00,,,0.00,878.000000,,2013-03-18 21:33:00,
2013-03-18 14:43:00,61.0,14.0,-100.00,NW,323,4.0,10.0,16,0.00,,,0.00,878.000000,,2013-03-18 21:43:00,
2013-03-18 14:52:00,61.0,14.0,-100.00,NW,323,4.0,10.0,16,0.00,,,0.00,878.000000,,2013-03-18 21:52:00,
2013-03-18 15:02:00,58.0,17.0,-100.00,NNW,336,4.0,13.0,20,0.00,,,0.00,689.000000,,2013-03-18 22:02:00,
2013-03-18 15:33:00,58.0,17.0,-100.00,NNW,336,4.0,13.0,20,0.00,,,0.00,689.000000,,2013-03-18 22:33:00,
2013-03-18 15:42:00,58.0,17.0,-100.00,NNW,336,4.0,13.0,20,0.00,,,0.00,689.000000,,2013-03-18 22:42:00,
2013-03-18 15:52:00,58.0,17.0,-100.00,NNW,336,4.0,13.0,20,0.00,,,0.00,689.000000,,2013-03-18 22:52:00,
2013-03-18 16:02:00,55.0,23.0,-100.00,NW,310,3.0,10.0,28,0.00,,,0.00,415.000000,,2013-03-18 23:02:00,
2013-03-18 16:33:00,55.0,23.0,-100.00,NW,310,3.0,10.0,28,0.00,,,0.00,415.000000,,2013-03-18 23:33:00,
2013-03-18 16:42:00,55.0,23.0,-100.00,NW,310,3.0,10.0,28,0.00,,,0.00,415.000000,,2013-03-18 23:42:00,
2013-03-18 16:53:00,55.0,23.0,-100.00,NW,310,3.0,10.0,28,0.00,,,0.00,415.000000,,2013-03-18 23:53:00,
2013-03-18 17:02:00,53.0,27.0,-100.00,NNW,334,2.0,9.0,36,0.00,,,0.00,246.000000,,2013-03-19 00:02:00,
2013-03-18 17:23:00,53.0,27.0,-100.00,NNW,334,2.0,9.0,36,0.00,,,0.00,246.000000,,2013-03-19 00:23:00,
2013-03-18 17:32:00,53.0,27.0,-100.00,NNW,334,2.0,9.0,36,0.00,,,0.00,246.000000,,2013-03-19 00:32:00,
2013-03-18 17:43:00,53.0,27.0,-100.00,NNW,334,2.0,9.0,36,0.00,,,0.00,246.000000,,2013-03-19 00:43:00,
2013-03-18 17:52:00,53.0,27.0,-100.00,NNW,334,2.0,9.0,36,0.00,,,0.00,246.000000,,2013-03-19 00:52:00,
2013-03-18 18:23:00,50.0,27.0,-100.00,NNW,334,0.0,8.0,40,0.00,,,0.00,145.000000,,2013-03-19 01:23:00,
2013-03-18 18:33:00,50.0,27.0,-100.00,NNW,334,0.0,8.0,40,0.00,,,0.00,145.000000,,2013-03-19 01:33:00,
2013-03-18 18:43:00,50.0,27.0,-100.00,NNW,334,0.0,8.0,40,0.00,,,0.00,145.000000,,2013-03-19 01:43:00,
2013-03-18 18:52:00,50.0,27.0,-100.00,NNW,334,0.0,8.0,40,0.00,,,0.00,145.000000,,2013-03-19 01:52:00,
2013-03-18 19:01:00,50.0,27.0,-100.00,NNW,334,0.0,8.0,40,0.00,,,0.00,145.000000,,2013-03-19 02:01:00,
2013-03-18 19:33:00,47.0,27.0,-100.00,North,10,0.0,4.0,45,0.00,,,0.00,47.000000,,2013-03-19 02:33:00,
2013-03-18 19:42:00,47.0,27.0,-100.00,North,10,0.0,4.0,45,0.00,,,0.00,47.000000,,2013-03-19 02:42:00,
2013-03-18 19:52:00,47.0,27.0,-100.00,North,10,0.0,4.0,45,0.00,,,0.00,47.000000,,2013-03-19 02:52:00,
2013-03-18 20:01:00,47.0,27.0,-100.00,North,10,0.0,4.0,45,0.00,,,0.00,47.000000,,2013-03-19 03:01:00,
2013-03-18 20:02:00,45.0,30.0,-100.00,ENE,77,0.0,0.0,56,0.00,,,0.00,1.000000,,2013-03-19 03:02:00,
2013-03-18 20:22:00,45.0,30.0,-100.00,ENE,77,0.0,0.0,56,0.00,,,0.00,1.000000,,2013-03-19 03:22:00,
2013-03-18 20:33:00,45.0,30.0,-100.00,ENE,77,0.0,0.0,56,0.00,,,0.00,1.000000,,2013-03-19 03:33:00,
2013-03-18 20:43:00,45.0,30.0,-100.00,ENE,77,0.0,0.0,56,0.00,,,0.00,1.000000,,2013-03-19 03:43:00,
2013-03-18 20:53:00,45.0,30.0,-100.00,ENE,77,0.0,0.0,56,0.00,,,0.00,1.000000,,2013-03-19 03:53:00,
2013-03-18 21:02:00,42.0,27.0,-100.00,SE,143,0.0,0.0,56,0.00,,,0.00,0.000000,,2013-03-19 04:02:00,
2013-03-18 21:34:00,42.0,27.0,-100.00,SE,143,0.0,0.0,56,0.00,,,0.00,0.000000,,2013-03-19 04:34:00,
2013-03-18 21:43:00,42.0,27.0,-100.00,SE,143,0.0,0.0,56,0.00,,,0.00,0.000000,,2013-03-19 04:43:00,
2013-03-18 21:52:00,42.0,27.0,-100.00,SE,143,0.0,0.0,56,0.00,,,0.00,0.000000,,2013-03-19 04:52:00,
2013-03-18 22:02:00,42.0,29.0,-100.00,East,96,0.0,0.0,60,0.00,,,0.00,0.000000,,2013-03-19 05:02:00,
2013-03-18 22:32:00,42.0,29.0,-100.00,East,96,0.0,0.0,60,0.00,,,0.00,0.000000,,2013-03-19 05:32:00,
2013-03-18 22:43:00,42.0,29.0,-100.00,East,96,0.0,0.0,60,0.00,,,0.00,0.000000,,2013-03-19 05:43:00,
2013-03-18 22:52:00,42.0,29.0,-100.00,East,96,0.0,0.0,60,0.00,,,0.00,0.000000,,2013-03-19 05:52:00,
2013-03-18 23:22:00,39.0,26.0,-100.00,SSE,155,0.0,0.0,59,0.00,,,0.00,0.000000,,2013-03-19 06:22:00,
2013-03-18 23:32:00,39.0,26.0,-100.00,SSE,155,0.0,0.0,59,0.00,,,0.00,0.000000,,2013-03-19 06:32:00,
2013-03-18 23:42:00,39.0,26.0,-100.00,SSE,155,0.0,0.0,59,0.00,,,0.00,0.000000,,2013-03-19 06:42:00,
2013-03-18 23:52:00,39.0,26.0,-100.00,SSE,155,0.0,0.0,59,0.00,,,0.00,0.000000,,2013-03-19 06:52:00,